METEOR 1-5 DEB

Satellite information

Favourite Embed

Satellite Type and Status

DEBRISIN ORBIT

Key statistics

Satellite METEOR 1-5 DEB at a glance.

Uptime

20211

Days in orbit

Revolutions

≈ 14.2

Per day

Orbit

LEO

Low Earth Orbit

Inclination

81.2

Latest

Satellite identification and parameters

Extended collection of information and parameters for METEOR 1-5 DEB.

Object identification

Identified? True

Debris? True

Object name: METEOR 1-5 DEB

International designator: 1970-047D

Object number (NORAD): 58397

Object ID (CCSDS): 58397

Country: COMMONWEALTH OF INDEPENDENT STATES (CIS)

Current information (Y/N): Y

RCS size: SMALL

Orbital parameters

Period: 101.679 minutes

Inclination: 81.2132 deg

SMA: 7216.298 km

Apoapsis: 860.003 km

Periapsis: 816.322 km

RAAN: 110.7652 deg

Eccentricy: 0.0030265

Argument of periapsis: 13.2535 deg

Mean anomaly: 346.9427 deg

Mean motion: 14.16221277 rev/day

Mean motion (dot): 0.00001008 rev/day2

B* drag term: 0.00050095592 1/REarth

Two-line elements (TLE)

Creation date: Oct. 23, 2025, 2:46 a.m.

Reference frame: TEME

Reference center: EARTH

Epoch: Oct. 22, 2025, 12:38 p.m. UTC

TLE line 0: 0 METEOR 1-5 DEB

TLE line 1: 1 58397U 70047D 25295.52677050 .00001008 00000-0 50096-3 0 9997

TLE line 2: 2 58397 81.2132 110.7652 0030265 13.2535 346.9427 14.16221277102807

Live tracking on map

Real-time ground track for satellite METEOR 1-5 DEB.

In-orbit conjunctions

A list of the most updated potential collisions computed for object METEOR 1-5 DEB.

Target Orbit TCA Probability of collision Miss distance Type
THOR BURNER 2 R/B SSO 2024-12-15 15:08:30 0.0001402006 165.0 (m) ROCKET BODY
FENGYUN 1C DEB SSO 2024-11-07 08:58:03 0.000322281 57.0 (m) DEBRIS
THOR BURNER 2 R/B SSO 2024-06-03 21:31:58 0.001432262 89.0 (m) ROCKET BODY

Associated space launch

The Meteor-1 series was the first series of Soviet meteorological satellites.

METEOR 1-5 DEB was lifted into orbit during the mission ‘Vostok 8A92M | Meteor-1 5 (17L)’, on board a Vostok 8A92M space rocket.

The launch took place on June 23, 1970, 2:15 p.m. from 41/1.

For more information about the launch, click the button.

Launch to space Vostok 8A92M | Meteor-1 5 (17L)
Vostok 8A92M | Meteor-1 5 (17L)

Agency: N/A

Status: Launch Successful

Launch date: June 23, 1970, 2:15 p.m. UTC

Rocket: Vostok 8A92M

Launch pad: 41/1

Location: Plesetsk Cosmodrome, Russian Federation

...

Latest news about this satellite

There are no fresh news available about this satellite. Check back as we update our databases every day.


Newsletter sign-up

Weekly statistics, charts and insights to help you stay on top of the space industry.